Regional Weather Roundup
Issued by NWS

Home | Current Version | Previous Version | Text Only | Print | Product List | Glossary On
Versions: 1 2 3 4 5 6 7 8 9 10 11 12 13 14 15 16 17 18 19 20 21 22 23 24 25 26 27 28 29 30 31 32 33 34 35 36 37 38 39 40 41 42 43 44 45 46 47 48 49 50
000
ASUS46 KSTO 261409
RWRCA

NORTHERN AND CENTRAL CA REGIONAL WEATHER ROUNDUP
NATIONAL WEATHER SERVICE SACRAMENTO CA
600 AM PDT SAT MAY 26 2018

NOTE: FAIR INDICATES FEW OR NO CLOUDS BELOW 12,000 FEET WITH NO
SIGNIFICANT WEATHER AND/OR OBSTRUCTIONS TO VISIBILITY.

CAZ001-003-261400-
NORTHWEST AREA

CITY           SKY/WX    TMP DP  RH WIND       PRES   REMARKS
CRESCENT CITY  CLEAR     48  44  86 CALM      30.16R
UKIAH          CLOUDY    53  47  79 N3        30.07R
$$

CAZ006-505>513-261400-
BAY AREA

CITY           SKY/WX    TMP DP  RH WIND       PRES   REMARKS
SANTA ROSA     CLOUDY    53  52  96 CALM      30.04S
SAN RAFAEL     N/A       54  MM  MM MISG
NAPA           CLOUDY    54  51  90 CALM      30.05S
CONCORD        CLOUDY    57  50  77 S8        30.05S
OAKLAND CITY   N/A      MM  MM  MM MISG
OAKLAND        CLOUDY    54  51  90 W14       30.06F
SAN FRAN CITY  N/A       53  MM  89 MISG
SAN FRAN ARPT  CLOUDY    56  48  74 W21       30.06S
LIVERMORE      CLOUDY    54  54 100 S7        30.06S
HAYWARD        CLOUDY    56  50  80 W8        30.06S
REDWOOD CITY   N/A       55  MM  82 MISG
MOFFETT ARPT   CLOUDY    55  50  83 NW7       30.08S
SAN JOSE ARPT  CLOUDY    56  51  84 W10       30.08S
$$
CAZ034-037-514>518-261400-
CENTRAL COAST

CITY           SKY/WX    TMP DP  RH WIND       PRES   REMARKS
WATSONVILLE    CLOUDY    54  50  86 CALM      30.08S
SALINAS        CLOUDY    55  52  89 W10       30.08S
MONTEREY       CLOUDY    54  51  90 W7        30.10S
SAN LUIS OBISP CLOUDY    56  49  77 NW7       30.06S
SANTA MARIA    CLOUDY    56  52  86 NE8       30.06S
$$
CAZ015-016-261400-
NORTHERN SACRAMENTO VALLEY

CITY           SKY/WX    TMP DP  RH WIND       PRES   REMARKS
REDDING        CLOUDY    55  54  96 NE5       30.05R FOG
RED BLUFF      CLOUDY    57  54  89 NW3       30.05S
OROVILLE       LGT RAIN  57  56  96 SE5       30.05F
$$
CAZ016>018-261400-
SOUTHERN SACRAMENTO VALLEY

CITY           SKY/WX    TMP DP  RH WIND       PRES   REMARKS
AUBURN         CLOUDY    52  48  87 CALM      30.05S
LINCOLN        FAIR      54  52  94 SE3       30.04S
MARYSVILLE     LGT RAIN  55  53  93 SE3       30.05S
SAC INTL ARPT  CLOUDY    55  53  93 SE5       30.03S
MATHER AIRPORT CLOUDY    54  52  94 SE6       30.04S
DOWNTOWN SAC   N/A       54  MM  MM MISG
SAC EXEC ARPT  CLOUDY    54  53  97 S3        30.04S
VACAVILLE      CLOUDY    55  55 100 SW5       30.05R
$$
CAZ019>021-261400-
SAN JOAQUIN VALLEY

CITY           SKY/WX    TMP DP  RH WIND       PRES   REMARKS
STOCKTON       CLOUDY    54  50  86 W7        30.04S
MODESTO        CLEAR     53  50  89 N6        30.04S
MERCED         CLEAR     52  50  93 NW3       30.04R
LEMOORE        CLEAR     53  45  74 NW7       30.04R
FRESNO         PTCLDY    54  50  86 NW10      30.03S
HANFORD        CLEAR     55  50  83 NW9       30.05R
PORTERVILLE    CLOUDY    56  50  80 CALM      30.03S
BAKERSFIELD    CLOUDY    57  52  83 NW7       30.02R
$$
CAZ011-012-071-261400-
NORTHERN MOUNTAINS

CITY           SKY/WX    TMP DP  RH WIND       PRES   REMARKS
YREKA          CLOUDY    47  42  83 NE12      30.09R
MOUNT SHASTA   CLOUDY    47  45  93 VRB3      30.04R
ALTURAS        LGT RAIN  45  44  97 W9        30.01F
$$
CAZ011-012-071-261400-
SIERRA NEVADA MTNS

CITY           SKY/WX    TMP DP  RH WIND       PRES   REMARKS
TRUCKEE        CLOUDY    36  36 100 CALM      30.05F
TAHOE VLY ARPT CLOUDY    34  33  96 CALM      30.03F
MAMMOTH LAKES  FAIR      34  30  84 NW6       30.02R WCI  29
$$



USA.gov is the U.S. government's official web portal to all federal, state and local government web resources and services.